Regional Weather Roundup
Issued by NWS

Home | Current Version | Previous Version | Graphics & Text | Print | Product List | Glossary On
Versions: 1 2 3 4 5 6 7 8 9 10 11 12 13 14 15 16 17 18 19 20 21 22 23 24 25 26 27 28 29 30 31 32 33 34 35 36 37 38 39 40 41 42 43 44 45 46 47 48 49 50
000
ASUS45 KCYS 061310
RWRWY

WYOMING REGIONAL WEATHER ROUNDUP
NATIONAL WEATHER SERVICE CHEYENNE WY
600 AM MST FRI MAR 06 2015

NOTE:  "FAIR" INDICATES FEW OR NO CLOUDS BELOW 12,000 FEET
WITH NO SIGNIFICANT WEATHER AND/OR OBSTRUCTIONS TO VISIBILITY.

WYZ001-061400-
YELLOWSTONE NATIONAL PARK

CITY           SKY/WX    TMP DP  RH WIND       PRES   REMARKS
LK YELLOWSTONE   N/A      1  -3  83 W5        30.36R WCI  -9
W YELLOWSTONE  NOT AVBL

$$
WYZ002>013-054>058-071-098>099-061400-
NORTHERN WYOMING

CITY           SKY/WX    TMP DP  RH WIND       PRES   REMARKS
JACKSON        FAIR       5   1  85 N12       30.39R WCI -11
CODY           MOCLDY    41  10  28 W16G25    30.19S
GREYBULL       FAIR      18  14  84 E3        30.25R
WORLAND        FAIR      20  14  77 S6        30.23S WCI  12
SHERIDAN       FAIR      27  16  63 S5        30.15R WCI  22
BUFFALO        FAIR      34  12  40 CALM      30.16R
GILLETTE       FAIR      31  16  54 SW9       30.14S WCI  23
HULETT         FAIR      32  19  59 MISG      30.14R
NEWCASTLE      FAIR      21  14  73 CALM      30.17S

$$
WYZ014>020-022>026-101>103-061400-
CENTRAL WYOMING

CITY           SKY/WX    TMP DP  RH WIND       PRES   REMARKS
BIG PINEY      FAIR      13   7  77 CALM      30.35S
PINEDALE       FAIR      10   3  72 W8        30.34F WCI  -1
DUBOIS         FAIR      21  10  63 NW18      30.27S WCI   6
LANDER         FAIR      21   9  59 NW9       30.24R WCI  11
RIVERTON       FAIR      10   5  80 SW3       30.25R
CASPER         FAIR      27  15  61 SW14      30.23R WCI  16
DOUGLAS        FAIR      17  13  84 CALM      30.22R

$$
WYZ021-027>030-104>119-061400-
SOUTHERN WYOMING

CITY           SKY/WX    TMP DP  RH WIND       PRES   REMARKS
EVANSTON       FAIR      19  11  70 SW10      30.39R WCI   7
FORT BRIDGER   FAIR      27  12  53 SW9       30.39R WCI  18
ROCK SPRINGS   FAIR      22  10  60 W14       30.34S WCI   9
DIXON          FAIR      14   9  81 SE6       30.41S WCI   5
RAWLINS        FAIR      24  12  60 SW23      30.29R WCI   9
SARATOGA       FAIR      16   9  73 SE7       30.33S WCI   6
LARAMIE        FAIR      25  11  55 W17       30.25S WCI  12
CHEYENNE       FAIR      32  12  43 NW9       30.23R WCI  24
TORRINGTON     FAIR      31  19  61 W5        30.21R WCI  26
PINE BLUFFS    FAIR      28  18  64 SW6       30.24S WCI  22

$$


USA.gov is the U.S. government's official web portal to all federal, state and local government web resources and services.